Mount Holly, NJ

5:05 PM EST on December 07, 2019 (GMT -0500)
South Jersey Regional

Weather History for KVAY - October, 2019

Change the Weather History Date:

Friday, October 11, 2019

  Actual Average (KPNE) Record (KPNE)
Temperature  
Mean Temperature 58 °F -  
Max Temperature 66 °F 65 °F 84 °F (2018)
Min Temperature 51 °F 45 °F 39 °F (1996)
Degree Days  
Heating Degree Days 6    
Growing Degree Days 8 (Base 50)    
Moisture  
Dew Point 41 °F    
Average Humidity 54    
Maximum Humidity 89    
Minimum Humidity 33    
Precipitation  
Precipitation 0.00 in - - ()
Sea Level Pressure  
Sea Level Pressure 30.09 in    
Wind  
Wind Speed 9 mph (NNE)    
Max Wind Speed 14 mph    
Max Gust Speed 23 mph    
Visibility 10 miles    
Events      
Averages and records for this station are not official NWS values.
T = Trace of Precipitation, MM = Missing Value Source: NWS Daily Summary

Daily Weather History Graph

Daily Weather History Graph

Search for Another Location

Airport or City:

Astronomy

Oct. 11, 2019 Rise Set
Actual Time 7:05 AM EDT 6:26 PM EDT
Civil Twilight 6:38 AM EDT 6:53 PM EDT
Nautical Twilight 6:06 AM EDT 7:24 PM EDT
Astronomical Twilight 5:35 AM EDT 7:56 PM EDT
Moon 5:54 PM EDT (10/11) 4:43 AM EDT (10/11)
Length of Visible Light 12h 15m
Length of Day
11h 20m
Waxing Gibbous, 96% of the Moon is Illuminated
Oct 11
Waxing Gibbous
Oct 13
Full
Oct 21
Last Quarter
Oct 27
New
Nov 4
First Quarter

Hourly Weather History & Observations

Time (EDT) Temp. Dew Point Humidity Pressure Visibility Wind Dir Wind Speed Gust Speed Precip Events Conditions
12:54 AM 60.1 °F 30.9 °F 33% 30.14 in 10.0 mi NE 13.8 mph 23.0 mph N/A   Overcast
1:54 AM 57.9 °F 32.0 °F 37% 30.14 in 10.0 mi NNE 8.1 mph - N/A   Scattered Clouds
2:54 AM 55.0 °F 33.1 °F 43% 30.12 in 10.0 mi NNE 9.2 mph - N/A   Clear
3:54 AM 54.0 °F 35.1 °F 49% 30.12 in 10.0 mi North 5.8 mph - N/A   Mostly Cloudy
4:54 AM 53.1 °F 35.1 °F 50% 30.12 in 10.0 mi North 8.1 mph - N/A   Clear
5:54 AM 53.1 °F 35.1 °F 50% 30.12 in 10.0 mi North 8.1 mph - N/A   Mostly Cloudy
6:54 AM 51.1 °F 36.0 °F 56% 30.12 in 10.0 mi North 6.9 mph - N/A   Clear
7:54 AM 52.0 °F 37.0 °F 57% 30.12 in 10.0 mi North 5.8 mph - N/A   Clear
8:54 AM 57.9 °F 37.9 °F 47% 30.12 in 10.0 mi North 12.7 mph 17.3 mph N/A   Clear
9:54 AM 61.0 °F 39.0 °F 44% 30.12 in 10.0 mi NNE 11.5 mph 23.0 mph N/A   Clear
10:54 AM 63.0 °F 42.1 °F 46% 30.11 in 10.0 mi NNE 11.5 mph 18.4 mph N/A   Overcast
11:54 AM 64.0 °F 43.0 °F 46% 30.11 in 10.0 mi ENE 6.9 mph 18.4 mph N/A   Overcast
12:54 PM 64.9 °F 44.1 °F 47% 30.10 in 10.0 mi ENE 8.1 mph - N/A   Overcast
1:54 PM 64.0 °F 45.0 °F 50% 30.09 in 10.0 mi NNE 5.8 mph - N/A   Overcast
2:54 PM 64.0 °F 46.0 °F 52% 30.07 in 10.0 mi NE 9.2 mph - N/A   Overcast
3:54 PM 64.0 °F 46.0 °F 52% 30.06 in 10.0 mi North 8.1 mph - N/A   Overcast
4:54 PM 66.0 °F 46.0 °F 48% 30.05 in 10.0 mi NNE 11.5 mph - N/A   Overcast
5:54 PM 63.0 °F 48.0 °F 58% 30.06 in 10.0 mi NE 11.5 mph - N/A   Overcast
6:54 PM 62.1 °F 46.9 °F 58% 30.07 in 10.0 mi NNE 5.8 mph - N/A   Overcast
7:54 PM 61.0 °F 45.0 °F 56% 30.06 in 10.0 mi NNE 6.9 mph - N/A   Overcast
8:54 PM 59.0 °F 45.0 °F 60% 30.06 in 10.0 mi Calm Calm - N/A   Overcast
9:54 PM 54.0 °F 46.9 °F 77% 30.05 in 10.0 mi NE 3.5 mph - N/A   Clear
10:54 PM 51.1 °F 46.0 °F 83% 30.04 in 10.0 mi Calm Calm - N/A   Clear
11:54 PM 51.1 °F 48.0 °F 89% 30.03 in 10.0 mi Calm Calm - N/A   Mostly Cloudy